This is the latest recevied weather packets stored in our database for station/object WW5JC. If no packets are shown the sender has not sent any weather packets the latest 10 day(s).
| Time | Temp. | Humidity | Pressure | Rain* | Wind** | Luminosity | Snow |
|---|---|---|---|---|---|---|---|
| 1788496843 | 27.78° C | 78% | 1015.3 hPa | 0 mm | - | 0 W/m² | - |
| 1788496539 | 27.78° C | 78% | 1015.3 hPa | 0 mm | - | 0 W/m² | - |
| 1788496234 | 27.22° C | 79% | 1015.5 hPa | 0 mm | - | 0 W/m² | - |
| 1788495931 | 26.67° C | 81% | 1015.3 hPa | 0 mm | - | 0 W/m² | - |
| 1788495626 | 26.67° C | 82% | 1015.4 hPa | 0 mm | - | 0 W/m² | - |
| 1788495321 | 26.11° C | 83% | 1015.4 hPa | 0 mm | - | 0 W/m² | - |
| 1788495017 | 26.11° C | 83% | 1015.5 hPa | 0 mm | - | 0 W/m² | - |
| 1788494716 | 26.67° C | 83% | 1015.4 hPa | 0 mm | - | 0 W/m² | - |
| 1788494414 | 26.67° C | 82% | 1015.4 hPa | 0 mm | - | 0 W/m² | - |
| 1788494109 | 26.67° C | 82% | 1015.5 hPa | 0 mm | - | 0 W/m² | - |
| 1788493808 | 26.67° C | 82% | 1015.5 hPa | 0 mm | - | 0 W/m² | - |
| 1788493503 | 27.22° C | 82% | 1015.5 hPa | 0 mm | - | 0 W/m² | - |
| 1788493198 | 27.22° C | 81% | 1015.5 hPa | 0 mm | - | 0 W/m² | - |
| 1788492894 | 27.22° C | 80% | 1015.4 hPa | 0 mm | - | 0 W/m² | - |
| 1788492590 | 27.22° C | 80% | 1015.4 hPa | 0 mm | - | 0 W/m² | - |
| 1788492285 | 27.22° C | 80% | 1015.5 hPa | 0 mm | - | 0 W/m² | - |
| 1788491984 | 27.78° C | 79% | 1015.4 hPa | 0 mm | - | 0 W/m² | - |
| 1788491680 | 27.78° C | 79% | 1015.4 hPa | 0 mm | - | 0 W/m² | - |
| 1788491376 | 27.78° C | 79% | 1015.4 hPa | 0 mm | - | 0 W/m² | - |
| 1788490766 | 27.78° C | 77% | 1015.2 hPa | 0 mm | - | 0 W/m² | - |
| 1788490463 | 28.33° C | 77% | 1015.1 hPa | 0 mm | - | 0 W/m² | - |
| 1788489553 | 28.89° C | 73% | 1015 hPa | 0 mm | - | 0 W/m² | - |
| 1788489249 | 28.89° C | 74% | 1015 hPa | 0 mm | - | 0 W/m² | - |
| 1788488645 | 28.33° C | 75% | 1015 hPa | 0 mm | - | 0 W/m² | - |
| 1788488341 | 27.78° C | 77% | 1015.1 hPa | 0 mm | - | 0 W/m² | - |
* Rain latest hour (hover to see other rain measurements)
** Current wind speed in m/s (hover to see current wind gust speed)